When you browse on this site, cookies collect data to enhance your experience and personalize the content and advertising you see.
Visit our Privacy Policy to learn more. By continuing to use the site, you agree to this use of cookies and data.

Hourly Weather Deviche

Today, 10 August, Monday

Time Temperature Precipitation Wind Pressure Humidity
00:00 +16°C° 0 mm 1 mps 744 mmHg 94%
01:00 +16°C° 0 mm 1 mps 744 mmHg 95%
02:00 +14°C° 0 mm 0 mps 744 mmHg 95%
03:00 +14°C° 0 mm 0 mps 744 mmHg 95%
04:00 +14°C° 0 mm 0 mps 744 mmHg 95%
05:00 +14°C° 0 mm 0 mps 744 mmHg 95%
06:00 +18°C° 0 mm 1 mps 744 mmHg 88%
07:00 +20°C° 0 mm 1 mps 744 mmHg 82%
08:00 +22°C° 0 mm 1 mps 744 mmHg 75%
09:00 +24°C° 0.4 mm 1 mps 744 mmHg 70%
10:00 +25°C° 0.4 mm 2 mps 743 mmHg 64%
11:00 +26°C° 0.4 mm 2 mps 743 mmHg 59%
12:00 +26°C° 0.4 mm 2 mps 743 mmHg 58%
13:00 +27°C° 0.4 mm 2 mps 742 mmHg 56%
14:00 +27°C° 0.4 mm 2 mps 742 mmHg 55%
15:00 +25°C° 1.2 mm 2 mps 742 mmHg 66%
16:00 +24°C° 1.2 mm 2 mps 742 mmHg 76%
17:00 +21°C° 1.2 mm 3 mps 742 mmHg 86%
18:00 +20°C° 0.4 mm 2 mps 742 mmHg 89%
19:00 +19°C° 0.4 mm 2 mps 742 mmHg 91%
20:00 +18°C° 0.4 mm 2 mps 742 mmHg 93%
21:00 +17°C° 0 mm 2 mps 742 mmHg 94%
22:00 +15°C° 0 mm 2 mps 742 mmHg 94%
23:00 +14°C° 0 mm 2 mps 743 mmHg 95%

Tomorrow, 11 August, Tuesday

Time Temperature Precipitation Wind Pressure Humidity
00:00 +13°C° 0 mm 2 mps 743 mmHg 96%
01:00 +12°C° 0 mm 2 mps 743 mmHg 96%
02:00 +10°C° 0 mm 2 mps 743 mmHg 97%
03:00 +10°C° 0 mm 2 mps 743 mmHg 97%
04:00 +10°C° 0 mm 2 mps 743 mmHg 97%
05:00 +9°C° 0 mm 2 mps 744 mmHg 97%
06:00 +10°C° 0 mm 3 mps 744 mmHg 94%
07:00 +11°C° 0 mm 3 mps 744 mmHg 91%
08:00 +12°C° 0 mm 4 mps 744 mmHg 88%
09:00 +13°C° 0 mm 4 mps 744 mmHg 83%
10:00 +14°C° 0 mm 4 mps 744 mmHg 77%
11:00 +15°C° 0 mm 4 mps 744 mmHg 72%
12:00 +15°C° 0.2 mm 4 mps 744 mmHg 72%
13:00 +15°C° 0.2 mm 4 mps 744 mmHg 72%
14:00 +15°C° 0.2 mm 4 mps 744 mmHg 72%
15:00 +15°C° 0.2 mm 4 mps 744 mmHg 74%
16:00 +15°C° 0.2 mm 4 mps 744 mmHg 76%
17:00 +15°C° 0.2 mm 4 mps 744 mmHg 77%
18:00 +13°C° 0.1 mm 3 mps 744 mmHg 82%
19:00 +12°C° 0.1 mm 3 mps 744 mmHg 86%
20:00 +11°C° 0.1 mm 3 mps 744 mmHg 91%
21:00 +11°C° 0 mm 3 mps 744 mmHg 91%
22:00 +11°C° 0 mm 3 mps 744 mmHg 91%
23:00 +10°C° 0 mm 3 mps 744 mmHg 91%

Day after tomorrow, 12 August, Wednesday

Time Temperature Precipitation Wind Pressure Humidity
00:00 +10°C° 0 mm 3 mps 744 mmHg 91%
01:00 +9°C° 0 mm 3 mps 744 mmHg 92%
02:00 +9°C° 0 mm 3 mps 744 mmHg 92%
03:00 +9°C° 0 mm 3 mps 744 mmHg 93%
04:00 +9°C° 0 mm 3 mps 744 mmHg 95%
05:00 +8°C° 0 mm 3 mps 744 mmHg 96%
06:00 +10°C° 0 mm 3 mps 744 mmHg 89%
07:00 +11°C° 0 mm 4 mps 744 mmHg 83%
08:00 +12°C° 0 mm 4 mps 744 mmHg 76%
09:00 +14°C° 0 mm 4 mps 744 mmHg 70%
10:00 +15°C° 0 mm 4 mps 745 mmHg 64%
11:00 +17°C° 0 mm 4 mps 745 mmHg 59%
12:00 +17°C° 0 mm 4 mps 745 mmHg 59%
13:00 +17°C° 0 mm 4 mps 745 mmHg 59%
14:00 +18°C° 0 mm 4 mps 745 mmHg 59%
15:00 +17°C° 0.1 mm 3 mps 745 mmHg 62%
16:00 +17°C° 0.1 mm 3 mps 745 mmHg 65%
17:00 +17°C° 0.1 mm 3 mps 745 mmHg 68%
18:00 +14°C° 0.1 mm 3 mps 745 mmHg 74%
19:00 +13°C° 0.1 mm 3 mps 745 mmHg 81%
20:00 +12°C° 0.1 mm 2 mps 745 mmHg 88%
21:00 +12°C° 0 mm 2 mps 745 mmHg 87%
22:00 +12°C° 0 mm 2 mps 745 mmHg 87%
23:00 +12°C° 0 mm 2 mps 745 mmHg 86%

13 August, Thursday

Time Temperature Precipitation Wind Pressure Humidity
00:00 +10°C° 0 mm 2 mps 745 mmHg 86%
01:00 +10°C° 0 mm 2 mps 745 mmHg 86%
02:00 +9°C° 0 mm 2 mps 745 mmHg 86%
03:00 +9°C° 0 mm 2 mps 745 mmHg 86%
04:00 +8°C° 0 mm 2 mps 745 mmHg 87%
05:00 +8°C° 0 mm 2 mps 745 mmHg 87%
06:00 +9°C° 0 mm 2 mps 745 mmHg 84%
07:00 +10°C° 0 mm 2 mps 745 mmHg 81%
08:00 +12°C° 0 mm 2 mps 745 mmHg 78%
09:00 +12°C° 0.1 mm 3 mps 745 mmHg 71%
10:00 +14°C° 0.1 mm 3 mps 745 mmHg 65%
11:00 +16°C° 0.1 mm 3 mps 745 mmHg 58%
12:00 +16°C° 0.1 mm 3 mps 745 mmHg 57%
13:00 +17°C° 0.1 mm 3 mps 745 mmHg 56%
14:00 +17°C° 0.1 mm 3 mps 745 mmHg 55%
15:00 +17°C° 0.1 mm 3 mps 745 mmHg 59%
16:00 +16°C° 0.1 mm 2 mps 745 mmHg 63%
17:00 +16°C° 0.1 mm 2 mps 745 mmHg 67%
18:00 +15°C° 0 mm 2 mps 745 mmHg 71%
19:00 +14°C° 0 mm 2 mps 745 mmHg 75%
20:00 +13°C° 0 mm 1 mps 745 mmHg 78%
21:00 +12°C° 0 mm 1 mps 745 mmHg 83%
22:00 +11°C° 0 mm 1 mps 745 mmHg 87%
23:00 +9°C° 0 mm 2 mps 745 mmHg 91%

14 August, Friday

Time Temperature Precipitation Wind Pressure Humidity
00:00 +10°C° 0 mm 1 mps 745 mmHg 93%
01:00 +9°C° 0 mm 1 mps 745 mmHg 95%
02:00 +9°C° 0 mm 1 mps 745 mmHg 96%
03:00 +9°C° 0 mm 1 mps 745 mmHg 97%
04:00 +9°C° 0 mm 1 mps 745 mmHg 97%
05:00 +9°C° 0 mm 1 mps 745 mmHg 97%
06:00 +10°C° 0 mm 2 mps 745 mmHg 88%
07:00 +13°C° 0 mm 2 mps 745 mmHg 79%
08:00 +15°C° 0 mm 2 mps 745 mmHg 70%
09:00 +16°C° 0.1 mm 2 mps 745 mmHg 68%
10:00 +17°C° 0.1 mm 2 mps 744 mmHg 66%
11:00 +18°C° 0.1 mm 3 mps 744 mmHg 64%
12:00 +18°C° 0.2 mm 2 mps 744 mmHg 65%
13:00 +18°C° 0.2 mm 2 mps 744 mmHg 66%
14:00 +18°C° 0.2 mm 2 mps 743 mmHg 66%
15:00 +18°C° 0.3 mm 2 mps 743 mmHg 70%
16:00 +18°C° 0.3 mm 2 mps 743 mmHg 74%
17:00 +17°C° 0.3 mm 2 mps 743 mmHg 78%
18:00 +16°C° 0.1 mm 1 mps 743 mmHg 83%
19:00 +14°C° 0.1 mm 1 mps 743 mmHg 88%
20:00 +12°C° 0.1 mm 1 mps 743 mmHg 93%
21:00 +12°C° 0 mm 1 mps 743 mmHg 93%
22:00 +12°C° 0 mm 1 mps 743 mmHg 94%
23:00 +11°C° 0 mm 1 mps 743 mmHg 94%

15 August, Saturday

Time Temperature Precipitation Wind Pressure Humidity
00:00 +10°C° 0 mm 0 mps 743 mmHg 94%
01:00 +9°C° 0 mm 0 mps 743 mmHg 94%
02:00 +9°C° 0 mm 0 mps 743 mmHg 94%
03:00 +9°C° 0 mm 0 mps 743 mmHg 93%
04:00 +9°C° 0 mm 0 mps 743 mmHg 93%
05:00 +8°C° 0 mm 0 mps 743 mmHg 92%
06:00 +11°C° 0 mm 1 mps 743 mmHg 86%
07:00 +13°C° 0 mm 1 mps 743 mmHg 80%
08:00 +15°C° 0 mm 1 mps 743 mmHg 74%
09:00 +16°C° 0 mm 2 mps 744 mmHg 66%
10:00 +17°C° 0 mm 2 mps 744 mmHg 58%
11:00 +19°C° 0 mm 2 mps 744 mmHg 49%
12:00 +19°C° 0 mm 2 mps 744 mmHg 48%
13:00 +20°C° 0 mm 2 mps 744 mmHg 46%
14:00 +20°C° 0 mm 2 mps 743 mmHg 45%
15:00 +20°C° 0 mm 2 mps 744 mmHg 47%
16:00 +20°C° 0 mm 2 mps 744 mmHg 49%
17:00 +19°C° 0 mm 2 mps 744 mmHg 51%
18:00 +17°C° 0 mm 2 mps 744 mmHg 59%
19:00 +15°C° 0 mm 1 mps 744 mmHg 67%
20:00 +13°C° 0 mm 1 mps 744 mmHg 75%
21:00 +12°C° 0 mm 1 mps 744 mmHg 78%
22:00 +11°C° 0 mm 1 mps 745 mmHg 80%
23:00 +10°C° 0 mm 0 mps 745 mmHg 83%
Show more